Regional Weather Roundup
Issued by NWS Charleston, SC

Current Version | Previous Version | Graphics & Text | Print | Product List | Glossary On
Versions: 1 2 3 4 5 6 7 8 9 10 11 12 13 14 15 16 17 18 19 20 21 22 23 24 25 26 27 28 29 30 31 32 33 34 35 36 37 38 39 40 41 42 43 44 45 46 47 48 49 50
000
ASUS42 KCHS 020825
RWRCHS

REGIONAL WEATHER ROUNDUP
NATIONAL WEATHER SERVICE CHARLESTON SC
400 AM EDT TUE SEP 02 2014

NOTE: "FAIR" INDICATES FEW OR NO CLOUDS BELOW 12,000 FEET WITH NO
SIGNIFICANT WEATHER AND/OR OBSTRUCTIONS TO VISIBILITY.

NOT ALL STATIONS ARE QUALITY CONTROLLED BY THE NATIONAL
WEATHER SERVICE. USE DATA WITH CAUTION...ESPECIALLY
DEWPOINT OBSERVATIONS.

SCZ027-030-031-034>040-042>050-020900-
...SOUTH CAROLINA...

CITY           SKY/WX    TMP DP  RH WIND       PRES   REMARKS
N CHARLESTON   CLEAR     80  76  87 CALM      30.06F
WATERFRONT PRK   N/A     82 N/A N/A SW3         N/A
FORT JOHNSON   NOT AVBL
MOUNT PLEASANT FAIR      79  77  94 CALM      30.05F FOG
JOHNS ISLAND   SUNNY     81  79  94 CALM      30.05F
PINOPOLIS        N/A     81  75  83 CALM      29.99S
MONCKS CORNER    N/A     77  77 100 CALM      30.05F FOG
SUMMERVILLE    FAIR      73  73 100 CALM      30.06F
BEAUFORT MCAS  CLEAR     80  77  90 CALM      30.06F
BEAUFORT ARPT  FAIR      79  79 100 CALM      30.04F
HILTON HEAD IS PTCLDY    79  77  94 CALM      30.06F
GEORGETOWN     NOT AVBL
WALTERBORO     SUNNY     77 N/A N/A CALM      30.06F
ORANGEBURG     PTCLDY    75  72  90 CALM      30.07S
BARNWELL       FAIR      77  75  94 CALM      30.06F
AIKEN          FAIR      73  73 100 CALM      30.10S
MANNING        FAIR      77 N/A N/A CALM      30.05F
KINGSTREE      NOT AVBL
COLUMBIA       PTCLDY    77  72  84 CALM      30.05F
SUMTER         MOCLDY    76  75  97 SW3       30.05F
FLORENCE       CLEAR     77  74  90 W6        30.06F
MYRTLE BEACH   PTCLDY    79  75  89 SW3       30.06F
N MYRTLE BEACH CLEAR     79  76  90 W3        30.06F

$$

GAZ063-065-086>088-099>101-113>116-118-119-134-136>141-150-020900-
...GEORGIA...

CITY           SKY/WX    TMP DP  RH WIND       PRES   REMARKS
SAVANNAH ARPT  CLEAR     79  75  87 CALM      30.06F
HUNTER AAF     CLEAR     78  76  92 CALM      30.03F
FORT STEWART   PTCLDY    76  73  92 NE2       30.03F
STATESBORO     NOT AVBL
SYLVANIA       SUNNY     76  75  96 CALM      30.06F FOG
CLAXTON        NOT AVBL
THOMSON        PTCLDY    73  73 100 NW5       30.11S
AUGUSTA-BUSH   MOCLDY    73  72  96 CALM      30.05F FOG
AUGUSTA-DANIEL MOCLDY    76  73  91 CALM      30.07F
SWAINSBORO     FAIR      77  77 100 CALM      30.05F
VIDALIA          N/A     73  73 100 CALM      30.04F
ALMA           MOCLDY    74  72  93 CALM      30.03F
WAYCROSS       CLOUDY    79  76  93 CALM      30.04S
JESUP            N/A     75  73  94 CALM      30.03F
BRUNSWICK      CLEAR     77  73  88 CALM      30.05S
SAINT SIMONS   CLEAR     80  75  84 VRB3      30.04F

$$

SCZ027-028-034-036>038-045-046-048>050-GAZ119-141-020900-
...LAKE AND SUPPLEMENTAL COASTAL OBSERVATIONS...

STATION/POSITION TIME  TEMP    WIND        PRES    WAVE   SWELL
                       AIR SEA DIR/SP/G            HT/PER HT/PER/DIR
                 (UTC) (F)     (DEG/KT/KT) (MB)    (FT/S) (FT/S/D)
UPR LAKE MARION  NOT AVBL
WINYAH BAY       0800   80     220/  3     1018.0S
LAKE MURRAY      0700   80     210/  6/  8 1017.3F
ACE BASIN NERRS  0800   78        CALM     1018.0S
FORT PULASKI     0800   82     250/  4/  6 1017.9F
SAPELO ISLAND    0800   80     170/  4     1018.0S

$$

ANZ835-935-AMZ111-154-330-350-352-354-374-450-454-472-020900-
...C-MAN AND BUOY OBSERVATIONS...

STATION/POSITION TIME  TEMP    WIND        PRES    WAVE   SWELL
                       AIR SEA DIR/SP/G            HT/PER HT/PER/DIR
                 (UTC) (F)     (DEG/KT/KT) (MB)    (FT/S) (FT/S/D)
FOLLY BEACH CMAN 0800   83     190/ 12/ 14 1018.1F
BUOY 41004       0800   83 84  220/ 12/ 14 1017.5F   2/ 8   2/ 8
BUOY 41008       0800   83 85  200/ 10/ 12 1017.3F   2/ 9   2/100/ 9
5E ST. MARYS GA  0700      85                N/A     2/ 9
FRYING PAN BUOY  NOT AVBL
BUOY 41025       0800   81     230/ 16/ 19 1017.4F   4/ 4   2/ 30/12
CAPE LOOKOUT NC  0800   81     240/  9/ 13 1017.9S
BUOY 41002       0654   81 83  210/ 12/ 14 1019.8    4/10   3/ 60/10
BUOY 41010       0800   83 84  150/  6/  6 1018.4F   3/ 8   3/ 70/ 8
BUOY 41012       NOT AVBL
ST AUGUSTINE FL  0800   78     210/  6/  8 1018.0F
CAPERS NEARSHORE 0700   83     220/ 10/ 14   N/A
FRIPP NEARSHORE  NOT AVBL


$$


USA.gov is the U.S. government's official web portal to all federal, state and local government web resources and services.